Overview Statistics Trail Chart Weather Telemetry Raw packets
 

This is the latest recevied weather packets stored in our database for station/object VE3EP-1. If no packets are shown the sender has not sent any weather packets the latest 10 day(s).

<< 24 25 26 27 28 29 30 >>
Time Temp. Humidity Pressure Rain* Wind** Luminosity Snow
1788059047 22.22° C 68% 1021.8 hPa 0 mm - - -
1788058446 22.78° C 67% 1021.8 hPa 0 mm - - -
1788057847 22.78° C 66% 1021.8 hPa 0 mm - - -
1788057247 22.78° C 64% 1021.8 hPa 0 mm - - -
1788056047 22.22° C 69% 1021.8 hPa 0 mm - - -
1788055448 22.22° C 68% 1021.8 hPa 0 mm - - -
1788054848 22.22° C 68% 1021.8 hPa 0 mm - - -
1788054248 22.22° C 67% 1022 hPa 0 mm - - -
1788053647 22.22° C 67% 1022 hPa 0 mm - - -
1788053046 22.22° C 69% 1022.1 hPa 0 mm - - -
1788052448 22.22° C 71% 1022 hPa 0 mm - - -
1788051848 22.22° C 70% 1022.1 hPa 0 mm - - -
1788051250 21.67° C 71% 1021.8 hPa 0 mm - - -
1788050648 21.67° C 73% 1021.8 hPa 0 mm - - -
1788050048 21.67° C 72% 1021.8 hPa 0 mm - - -
1788049448 21.11° C 73% 1021.8 hPa 0 mm - - -
1788048847 21.67° C 74% 1022 hPa 0 mm - - -
1788048247 21.67° C 72% 1022 hPa 0 mm - - -
1788047648 21.67° C 72% 1022 hPa 0 mm - - -
1788047046 21.67° C 72% 1021.8 hPa 0 mm - - -
1788046448 21.67° C 73% 1022 hPa 0 mm - - -
1788045847 21.11° C 74% 1021.8 hPa 0 mm - - -
1788045248 21.11° C 74% 1021.8 hPa 0 mm - - -
1788044648 21.11° C 74% 1022 hPa 0 mm - - -
1788044059 21.11° C 74% 1022 hPa 0 mm - - -

* Rain latest hour (hover to see other rain measurements)
** Current wind speed in m/s (hover to see current wind gust speed)